Change the Weather History Date:

Sunday, March 31, 2013

  Actual Average Record
Temperature  
Mean Temperature 22 °F -  
Max Temperature 31 °F 40 °F 62 °F (2003)
Min Temperature 14 °F 19 °F -3 °F (1954)
Degree Days  
Heating Degree Days 42    
Moisture  
Dew Point 16 °F    
Average Humidity 72    
Maximum Humidity 93    
Minimum Humidity 59    
Precipitation  
Precipitation 0.00 in - - ()
Sea Level Pressure  
Sea Level Pressure 29.92 in    
Wind  
Wind Speed 14 mph (NW)    
Max Wind Speed 23 mph    
Max Gust Speed 31 mph    
Visibility 9 miles    
Events Snow    
Averages and records for this station are not official NWS values.
T = Trace of Precipitation, MM = Missing Value Source: NWS Daily Summary

Daily Weather History Graph

Daily Weather History Graph

Search for Another Location

Airport or City:

Trip Planner

Search our weather history database for the weather conditions in past years. The results will help you decide how hot, cold, wet, or windy it might be!

Date:

Astronomy

Mar. 31, 2013 Rise Set
Actual Time 6:59 AM CDT 7:48 PM CDT
Civil Twilight 6:28 AM CDT 8:19 PM CDT
Nautical Twilight 5:51 AM CDT 8:56 PM CDT
Astronomical Twilight 5:12 AM CDT 9:36 PM CDT
Moon 12:12 AM CDT (3/31) 9:30 AM CDT (3/31)
Length of Visible Light 13h 50m
Length of Day
12h 48m
Waning Gibbous, 77% of the Moon is Illuminated
Mar 31
Waning Gibbous
Apr 2
Last Quarter
Apr 10
New
Apr 18
First Quarter
Apr 25
Full

Hourly Weather History & Observations

Time (CDT) Temp. Windchill Dew Point Humidity Pressure Visibility Wind Dir Wind Speed Gust Speed Precip Events Conditions
12:15 AM 31.6 °F 23.7 °F 25.7 °F 79% 29.81 in 10.0 mi West 9.2 mph - N/A   Overcast
12:35 AM 31.6 °F 25.1 °F 25.7 °F 79% 29.80 in 10.0 mi West 6.9 mph - N/A   Overcast
12:55 AM 31.6 °F 25.1 °F 25.7 °F 79% 29.80 in 10.0 mi West 6.9 mph - N/A   Overcast
1:15 AM 31.6 °F 25.1 °F 25.5 °F 78% 29.79 in 10.0 mi West 6.9 mph - N/A   Overcast
1:55 AM 31.6 °F 23.7 °F 25.7 °F 79% 29.78 in 10.0 mi West 9.2 mph - N/A   Overcast
2:15 AM 31.6 °F 23.1 °F 25.5 °F 78% 29.78 in 10.0 mi West 10.4 mph - N/A   Overcast
2:35 AM 31.6 °F 23.7 °F 25.2 °F 77% 29.77 in 10.0 mi West 9.2 mph - N/A   Overcast
2:55 AM 31.6 °F 25.1 °F 24.8 °F 76% 29.76 in 10.0 mi West 6.9 mph - N/A   Overcast
3:15 AM 31.5 °F 24.2 °F 25.2 °F 78% 29.76 in 10.0 mi West 8.1 mph - N/A   Overcast
3:35 AM 31.5 °F 23.5 °F 26.2 °F 81% 29.75 in 5.0 mi West 9.2 mph - N/A Snow Light Snow
3:55 AM 31.1 °F 23.1 °F 27.9 °F 88% 29.75 in 3.0 mi West 9.2 mph - N/A Snow Light Snow
4:15 AM 30.9 °F 22.8 °F 28.6 °F 91% 29.75 in 3.0 mi WNW 9.2 mph - N/A Snow Light Snow
4:35 AM 30.9 °F 22.2 °F 29.1 °F 93% 29.75 in 2.5 mi WNW 10.4 mph - N/A Snow Light Snow
4:55 AM 30.7 °F 19.2 °F 28.9 °F 93% 29.75 in 4.0 mi NW 17.3 mph - N/A Snow Light Snow
5:15 AM 30.9 °F 18.7 °F 28.6 °F 91% 29.75 in 5.0 mi NW 19.6 mph 23.0 mph N/A Snow Light Snow
5:35 AM 30.6 °F 17.6 °F 28.0 °F 90% 29.76 in 5.0 mi NNW 21.9 mph 31.1 mph N/A Snow Light Snow
5:55 AM 29.3 °F 16.2 °F 24.8 °F 83% 29.78 in 10.0 mi NNW 20.7 mph 26.5 mph N/A   Overcast
6:15 AM 27.9 °F 15.1 °F 23.2 °F 83% 29.79 in 7.0 mi NNW 18.4 mph 26.5 mph N/A Snow Light Snow
6:35 AM 27.0 °F 15.2 °F 21.9 °F 81% 29.79 in 10.0 mi NNW 15.0 mph 23.0 mph N/A   Overcast
6:55 AM 26.4 °F 15.0 °F 20.8 °F 79% 29.80 in 10.0 mi NNW 13.8 mph 23.0 mph N/A   Mostly Cloudy
7:15 AM 25.7 °F 12.3 °F 20.3 °F 80% 29.81 in 10.0 mi NNW 18.4 mph 25.3 mph N/A   Mostly Cloudy
7:55 AM 24.6 °F 9.7 °F 18.5 °F 78% 29.84 in 7.0 mi NNW 21.9 mph 28.8 mph N/A   Mostly Cloudy
8:15 AM 23.9 °F 8.4 °F 16.9 °F 75% 29.85 in 10.0 mi NW 23.0 mph 26.5 mph N/A   Scattered Clouds
8:35 AM 23.7 °F 10.1 °F 16.3 °F 73% 29.86 in 10.0 mi NNW 17.3 mph 24.2 mph N/A   Scattered Clouds
8:55 AM 23.5 °F 8.0 °F 15.8 °F 72% 29.86 in 10.0 mi NW 23.0 mph 26.5 mph N/A   Scattered Clouds
9:15 AM 23.7 °F 9.7 °F 15.4 °F 71% 29.87 in 10.0 mi NNW 18.4 mph 23.0 mph N/A   Mostly Cloudy
9:35 AM 23.9 °F 10.3 °F 15.4 °F 70% 29.88 in 10.0 mi NNW 17.3 mph 26.5 mph N/A   Mostly Cloudy
9:55 AM 23.5 °F 9.9 °F 14.9 °F 70% 29.89 in 10.0 mi NNW 17.3 mph 24.2 mph N/A   Mostly Cloudy
10:15 AM 23.7 °F 10.1 °F 14.5 °F 68% 29.90 in 10.0 mi NNW 17.3 mph 24.2 mph N/A   Mostly Cloudy
10:35 AM 23.9 °F 9.5 °F 14.4 °F 67% 29.90 in 10.0 mi NNW 19.6 mph 25.3 mph N/A   Mostly Cloudy
10:55 AM 24.3 °F 10.8 °F 13.6 °F 64% 29.90 in 10.0 mi NNW 17.3 mph 21.9 mph N/A   Scattered Clouds
11:15 AM 25.2 °F 12.4 °F 12.9 °F 60% 29.90 in 10.0 mi NW 16.1 mph 23.0 mph N/A   Mostly Cloudy
11:35 AM 25.3 °F 11.4 °F 13.6 °F 61% 29.91 in 10.0 mi NW 19.6 mph - N/A   Mostly Cloudy
11:55 AM 25.7 °F 12.3 °F 13.5 °F 60% 29.91 in 10.0 mi NW 18.4 mph 24.2 mph N/A   Scattered Clouds
12:15 PM 25.7 °F 13.1 °F 14.4 °F 62% 29.92 in 10.0 mi NNW 16.1 mph 24.2 mph N/A   Mostly Cloudy
12:35 PM 25.2 °F 11.6 °F 14.5 °F 64% 29.92 in 10.0 mi NNW 18.4 mph 26.5 mph N/A   Overcast
12:55 PM 25.5 °F 12.9 °F 14.0 °F 62% 29.93 in 10.0 mi NW 16.1 mph - N/A   Mostly Cloudy
1:15 PM 25.2 °F 12.4 °F 13.8 °F 62% 29.93 in 10.0 mi NNW 16.1 mph - N/A   Overcast
1:35 PM 25.2 °F 12.9 °F 14.4 °F 64% 29.94 in 10.0 mi NW 15.0 mph 21.9 mph N/A   Overcast
1:55 PM 25.5 °F 11.6 °F 14.0 °F 62% 29.94 in 10.0 mi NW 19.6 mph 23.0 mph N/A   Overcast
2:15 PM 25.5 °F 13.3 °F 14.5 °F 63% 29.94 in 10.0 mi NNW 15.0 mph 26.5 mph N/A Snow Light Snow
2:35 PM 25.7 °F 12.3 °F 14.4 °F 62% 29.95 in 10.0 mi NW 18.4 mph 27.6 mph N/A   Overcast
2:55 PM 25.9 °F 11.4 °F 13.5 °F 59% 29.95 in 10.0 mi WNW 21.9 mph 27.6 mph N/A   Overcast
3:15 PM 25.5 °F 11.3 °F 13.3 °F 60% 29.96 in 10.0 mi WNW 20.7 mph 28.8 mph N/A   Overcast
3:35 PM 25.3 °F 11.4 °F 13.1 °F 60% 29.96 in 10.0 mi WNW 19.6 mph 27.6 mph N/A   Overcast
3:55 PM 24.8 °F 10.0 °F 13.3 °F 62% 29.97 in 10.0 mi WNW 21.9 mph 27.6 mph N/A   Overcast
4:15 PM 24.6 °F 10.1 °F 13.3 °F 62% 29.97 in 10.0 mi NW 20.7 mph 27.6 mph N/A   Overcast
4:35 PM 24.3 °F 10.4 °F 13.6 °F 64% 29.97 in 10.0 mi WNW 18.4 mph 27.6 mph N/A   Overcast
4:55 PM 23.9 °F 11.2 °F 12.2 °F 61% 29.98 in 10.0 mi NW 15.0 mph 23.0 mph N/A   Overcast
5:15 PM 23.7 °F 8.5 °F 11.1 °F 59% 29.99 in 10.0 mi NW 21.9 mph 25.3 mph N/A   Mostly Cloudy
5:55 PM 23.0 °F 8.3 °F 11.1 °F 60% 30.00 in 10.0 mi NW 19.6 mph - N/A   Mostly Cloudy
6:15 PM 22.6 °F 7.5 °F 11.3 °F 62% 30.01 in 10.0 mi NW 20.7 mph - N/A   Scattered Clouds
6:35 PM 22.5 °F 7.6 °F 10.9 °F 61% 30.02 in 10.0 mi WNW 19.6 mph - N/A   Mostly Cloudy
6:55 PM 21.6 °F 6.1 °F 10.6 °F 63% 30.03 in 10.0 mi WNW 20.7 mph 25.3 mph N/A   Mostly Cloudy
7:15 PM 20.7 °F 5.7 °F 10.4 °F 65% 30.04 in 10.0 mi WNW 18.4 mph 25.3 mph N/A   Scattered Clouds
7:35 PM 19.9 °F 4.3 °F 10.2 °F 66% 30.04 in 10.0 mi WNW 19.6 mph 26.5 mph N/A   Clear
7:55 PM 19.4 °F 6.0 °F 9.9 °F 66% 30.05 in 10.0 mi WNW 13.8 mph - N/A   Scattered Clouds
8:15 PM 18.7 °F 5.7 °F 9.5 °F 67% 30.05 in 10.0 mi NW 12.7 mph - N/A   Clear
8:35 PM 18.1 °F 4.4 °F 8.8 °F 67% 30.06 in 10.0 mi NW 13.8 mph - N/A   Clear
8:55 PM 17.8 °F 2.4 °F 8.2 °F 66% 30.07 in 10.0 mi NW 17.3 mph - N/A   Clear
9:15 PM 17.2 °F 2.7 °F 8.2 °F 68% 30.08 in 10.0 mi NW 15.0 mph 20.7 mph N/A   Clear
9:35 PM 16.9 °F 2.8 °F 8.2 °F 69% 30.09 in 10.0 mi NW 13.8 mph - N/A   Clear
9:55 PM 16.7 °F 3.2 °F 8.4 °F 70% 30.09 in 10.0 mi WNW 12.7 mph - N/A   Clear
10:15 PM 16.2 °F 2.5 °F 9.1 °F 74% 30.10 in 10.0 mi WNW 12.7 mph - N/A   Clear
10:35 PM 15.8 °F 1.4 °F 9.7 °F 77% 30.10 in 10.0 mi WNW 13.8 mph - N/A   Clear
10:55 PM 15.6 °F 0.6 °F 10.0 °F 79% 30.10 in 10.0 mi WNW 15.0 mph - N/A   Clear
11:15 PM 15.1 °F 0.5 °F 10.0 °F 80% 30.10 in 10.0 mi WNW 13.8 mph - N/A   Clear
11:35 PM 14.9 °F 0.3 °F 10.2 °F 82% 30.11 in 10.0 mi WNW 13.8 mph - N/A   Clear
11:55 PM 14.7 °F 1.4 °F 9.9 °F 81% 30.11 in 10.0 mi WNW 11.5 mph - N/A   Clear